TimeEST,TemperatureF,Dew PointF,Humidity,Sea Level PressureIn,VisibilityMPH,Wind Direction,Wind SpeedMPH,Gust SpeedMPH,PrecipitationIn,Events,Conditions,WindDirDegrees,DateUTC
12:17 AM,28.8,21.9,76,30.18,10.0,Calm,Calm,-,N/A,,Overcast,0,2012-12-09 05:17:00
12:36 AM,27.9,21.2,76,30.18,10.0,NNE,3.5,-,N/A,,Mostly Cloudy,30,2012-12-09 05:36:00
12:56 AM,27.3,21.2,78,30.18,10.0,Calm,Calm,-,N/A,,Clear,0,2012-12-09 05:56:00
1:17 AM,26.6,21.0,79,30.18,10.0,Calm,Calm,-,N/A,,Clear,0,2012-12-09 06:17:00
1:36 AM,26.6,21.2,80,30.19,10.0,NE,4.6,-,N/A,,Clear,50,2012-12-09 06:36:00
1:56 AM,25.7,20.8,82,30.20,10.0,Calm,Calm,-,N/A,,Clear,0,2012-12-09 06:56:00
2:17 AM,24.4,20.5,85,30.21,10.0,Calm,Calm,-,N/A,,Clear,0,2012-12-09 07:17:00
2:36 AM,22.6,20.1,90,30.22,10.0,Calm,Calm,-,N/A,,Clear,0,2012-12-09 07:36:00
2:56 AM,21.9,20.1,93,30.23,10.0,Calm,Calm,-,N/A,,Clear,0,2012-12-09 07:56:00
3:17 AM,20.8,19.6,95,30.25,10.0,Calm,Calm,-,N/A,,Scattered Clouds,0,2012-12-09 08:17:00
3:36 AM,21.4,20.1,95,30.24,10.0,Calm,Calm,-,N/A,,Overcast,0,2012-12-09 08:36:00
3:57 AM,20.8,19.4,94,30.24,10.0,Calm,Calm,-,N/A,,Overcast,0,2012-12-09 08:57:00
4:17 AM,21.7,20.5,95,30.24,10.0,Calm,Calm,-,N/A,,Overcast,0,2012-12-09 09:17:00
4:36 AM,23.4,21.7,94,30.23,10.0,Calm,Calm,-,N/A,,Overcast,0,2012-12-09 09:36:00
4:57 AM,25.5,22.3,88,30.24,10.0,Calm,Calm,-,N/A,,Overcast,0,2012-12-09 09:57:00
5:17 AM,26.4,21.7,82,30.25,10.0,Calm,Calm,-,N/A,,Overcast,0,2012-12-09 10:17:00
5:36 AM,26.6,21.9,82,30.26,10.0,Calm,Calm,-,N/A,,Overcast,0,2012-12-09 10:36:00
5:57 AM,27.1,21.9,81,30.26,10.0,Calm,Calm,-,N/A,,Overcast,0,2012-12-09 10:57:00
6:16 AM,27.3,22.6,83,30.25,10.0,Calm,Calm,-,N/A,,Overcast,0,2012-12-09 11:16:00
6:36 AM,27.5,22.6,82,30.24,10.0,Calm,Calm,-,N/A,,Overcast,0,2012-12-09 11:36:00
6:57 AM,27.5,23.0,83,30.25,10.0,ENE,3.5,-,N/A,,Overcast,70,2012-12-09 11:57:00
7:16 AM,27.9,25.0,89,30.25,10.0,ENE,9.2,-,N/A,,Overcast,60,2012-12-09 12:16:00
7:36 AM,27.5,25.2,91,30.26,10.0,ENE,6.9,-,N/A,,Overcast,60,2012-12-09 12:36:00
7:57 AM,27.1,24.6,90,30.25,10.0,ENE,6.9,-,N/A,,Overcast,60,2012-12-09 12:57:00
8:16 AM,26.6,23.9,90,30.24,10.0,ENE,6.9,-,N/A,,Overcast,70,2012-12-09 13:16:00
8:36 AM,26.6,23.4,88,30.25,10.0,ENE,6.9,-,N/A,,Overcast,70,2012-12-09 13:36:00
8:57 AM,27.0,22.6,84,30.25,10.0,East,5.8,-,N/A,,Overcast,80,2012-12-09 13:57:00
9:16 AM,27.3,22.5,82,30.25,10.0,East,8.1,-,N/A,,Overcast,100,2012-12-09 14:16:00
9:37 AM,27.3,22.1,81,30.26,10.0,East,9.2,-,N/A,,Overcast,100,2012-12-09 14:37:00
9:56 AM,27.5,21.9,80,30.26,10.0,East,5.8,18.4,N/A,,Overcast,90,2012-12-09 14:56:00
10:16 AM,27.5,22.1,80,30.26,10.0,East,8.1,16.1,N/A,,Overcast,90,2012-12-09 15:16:00
10:37 AM,27.5,22.6,82,30.26,10.0,East,9.2,16.1,N/A,,Overcast,90,2012-12-09 15:37:00
10:56 AM,27.5,22.6,82,30.25,10.0,East,8.1,-,N/A,,Overcast,80,2012-12-09 15:56:00
11:17 AM,27.5,22.5,81,30.24,10.0,ENE,8.1,-,N/A,,Overcast,70,2012-12-09 16:17:00
11:37 AM,27.3,21.7,80,30.24,10.0,East,13.8,20.7,N/A,,Overcast,90,2012-12-09 16:37:00
11:56 AM,26.6,21.2,80,30.21,10.0,East,10.4,21.9,N/A,,Overcast,90,2012-12-09 16:56:00
12:17 PM,26.6,21.2,80,30.19,10.0,East,10.4,20.7,N/A,,Overcast,90,2012-12-09 17:17:00
12:36 PM,26.4,21.7,82,30.19,10.0,ENE,9.2,25.3,N/A,,Overcast,70,2012-12-09 17:36:00
12:56 PM,26.1,21.0,81,30.19,10.0,ENE,8.1,18.4,N/A,,Overcast,60,2012-12-09 17:56:00
1:17 PM,25.7,20.1,79,30.18,10.0,East,10.4,19.6,N/A,,Overcast,90,2012-12-09 18:17:00
1:36 PM,25.5,19.4,78,30.17,10.0,East,13.8,18.4,N/A,,Overcast,80,2012-12-09 18:36:00
1:56 PM,25.5,19.2,77,30.17,10.0,East,10.4,17.3,N/A,,Overcast,80,2012-12-09 18:56:00
2:17 PM,25.3,19.0,77,30.15,10.0,ENE,11.5,20.7,N/A,,Overcast,70,2012-12-09 19:17:00
2:36 PM,25.2,18.5,76,30.14,10.0,ENE,8.1,19.6,N/A,,Overcast,70,2012-12-09 19:36:00
2:56 PM,24.8,18.9,78,30.13,10.0,East,8.1,20.7,N/A,,Overcast,80,2012-12-09 19:56:00
3:16 PM,24.8,18.0,75,30.13,10.0,ENE,8.1,17.3,N/A,,Overcast,70,2012-12-09 20:16:00
3:36 PM,24.4,17.4,75,30.11,10.0,ENE,5.8,-,N/A,,Overcast,60,2012-12-09 20:36:00
3:57 PM,24.4,16.7,72,30.09,10.0,NE,8.1,17.3,N/A,,Overcast,50,2012-12-09 20:57:00
4:16 PM,24.3,17.4,75,30.07,5.0,NE,9.2,-,N/A,,Haze,50,2012-12-09 21:16:00
4:36 PM,24.6,16.5,71,30.06,10.0,ENE,8.1,18.4,N/A,,Overcast,60,2012-12-09 21:36:00
4:57 PM,24.6,16.2,70,30.06,10.0,ENE,6.9,17.3,N/A,,Overcast,70,2012-12-09 21:57:00
5:16 PM,24.8,15.6,68,30.05,10.0,NE,9.2,17.3,N/A,,Overcast,50,2012-12-09 22:16:00
5:37 PM,24.4,15.6,69,30.04,10.0,NE,9.2,-,N/A,Snow,Light Snow,50,2012-12-09 22:37:00
5:57 PM,23.5,17.6,78,30.03,2.5,ENE,6.9,23.0,N/A,Snow,Light Snow,60,2012-12-09 22:57:00
6:16 PM,22.1,19.8,91,30.02,1.2,NE,10.4,-,N/A,Snow,Light Snow,50,2012-12-09 23:16:00
6:37 PM,22.1,20.3,93,30.00,1.5,ENE,8.1,17.3,N/A,Snow,Light Snow,60,2012-12-09 23:37:00
6:56 PM,22.5,20.5,92,29.98,1.5,ENE,8.1,19.6,N/A,Snow,Light Snow,60,2012-12-09 23:56:00
7:16 PM,23.0,21.0,92,29.96,2.0,ENE,8.1,19.6,N/A,Snow,Light Snow,60,2012-12-10 00:16:00
7:37 PM,23.0,21.2,93,29.94,1.8,ENE,11.5,18.4,N/A,Snow,Light Snow,60,2012-12-10 00:37:00
7:56 PM,23.0,21.2,93,29.93,2.5,ENE,10.4,16.1,N/A,Snow,Light Snow,60,2012-12-10 00:56:00
8:16 PM,23.4,21.2,91,29.93,5.0,ENE,8.1,-,N/A,Snow,Light Snow,70,2012-12-10 01:16:00
8:37 PM,23.4,21.2,91,29.90,5.0,ENE,10.4,17.3,N/A,Snow,Light Snow,60,2012-12-10 01:37:00
8:56 PM,23.9,22.1,93,29.88,3.0,ENE,11.5,19.6,N/A,Snow,Light Snow,60,2012-12-10 01:56:00
9:16 PM,23.9,21.9,92,29.88,3.0,ENE,10.4,19.6,N/A,Snow,Light Snow,60,2012-12-10 02:16:00
9:37 PM,23.9,21.7,91,29.85,5.0,ENE,11.5,18.4,N/A,Snow,Light Snow,60,2012-12-10 02:37:00
9:56 PM,23.9,22.1,93,29.85,5.0,NE,10.4,19.6,N/A,Snow,Light Snow,50,2012-12-10 02:56:00
10:17 PM,23.4,21.7,94,29.84,5.0,NE,9.2,-,N/A,Snow,Light Snow,50,2012-12-10 03:17:00
10:37 PM,23.0,21.6,94,29.83,4.0,NE,8.1,17.3,N/A,Snow,Light Snow,40,2012-12-10 03:37:00
10:56 PM,22.6,21.2,94,29.82,4.0,NE,6.9,-,N/A,Snow,Light Snow,40,2012-12-10 03:56:00
11:17 PM,22.5,20.8,93,29.80,2.0,ENE,6.9,18.4,N/A,Snow,Light Snow,60,2012-12-10 04:17:00
11:57 PM,22.5,20.8,93,29.79,3.0,NE,8.1,-,N/A,Snow,Light Snow,40,2012-12-10 04:57:00